DW4139 Weather Reports


Display with metric or nautical units.
time (UTC)temp
F
wind
direction
speed
MPH
gust
MPH
rain 1hr
in
rain 24hr
in
rain mn
in
humidity
%
barometer
mb
20260503203403 64 292 2.0 3.0 0.00 0.00 0.00 47 1028.8
20260503202404 64 270 2.0 14.0 0.00 0.00 0.00 45 1028.8
20260503201403 64 270 5.0 6.0 0.00 0.00 0.00 45 1028.8
20260503200903 64 282 1.0 8.0 0.00 0.00 0.00 46 1028.8
20260503200403 63 225 0.0 0.0 0.00 0.00 0.00 47 1029.1
20260503195903 63 226 0.0 0.0 0.00 0.00 0.00 45 1029.5
20260503195403 63 270 2.0 12.0 0.00 0.00 0.00 44 1029.5
20260503194903 63 270 3.0 10.0 0.00 0.00 0.00 44 1029.5
20260503194403 63 225 3.0 10.0 0.00 0.00 0.00 44 1029.5
20260503193903 63 287 2.0 15.0 0.00 0.00 0.00 43 1029.5
20260503193403 63 270 8.0 8.0 0.00 0.00 0.00 43 1029.5
20260503192903 63 248 0.0 1.0 0.00 0.00 0.00 43 1029.7
20260503192403 63 279 1.0 7.0 0.00 0.00 0.00 44 1029.8
20260503191904 63 248 6.0 7.0 0.00 0.00 0.00 43 1029.8
20260503191403 64 315 5.0 7.0 0.00 0.00 0.00 43 1029.8
20260503190903 64 273 0.0 10.0 0.00 0.00 0.00 45 1029.8
20260503190403 64 202 7.0 10.0 0.00 0.00 0.00 45 1029.8
20260503185904 64 285 0.0 5.0 0.00 0.00 0.00 46 1030.1
20260503184403 63 261 4.0 5.0 0.00 0.00 0.00 47 1030.1
20260503183903 63 248 2.0 15.0 0.00 0.00 0.00 46 1030.1
20260503183403 63 292 7.0 15.0 0.00 0.00 0.00 47 1030.1
20260503182404 62 248 0.0 8.0 0.00 0.00 0.00 46 1030.5
20260503181903 62 292 3.0 8.0 0.00 0.00 0.00 46 1030.5
20260503181402 62 278 5.0 5.0 0.00 0.00 0.00 48 1030.5
20260503180904 62 308 7.0 8.0 0.00 0.00 0.00 48 1030.5
20260503180403 62 292 3.0 7.0 0.00 0.00 0.00 47 1030.6
20260503175903 62 296 5.0 6.0 0.00 0.00 0.00 47 1030.7
20260503174903 62 270 5.0 12.0 0.00 0.00 0.00 44 1030.8
20260503174403 62 252 12.0 12.0 0.00 0.00 0.00 44 1030.8
20260503173903 61 229 2.0 2.0 0.00 0.00 0.00 45 1030.8
20260503173403 61 225 3.0 6.0 0.00 0.00 0.00 45 1030.8
20260503172903 61 275 6.0 8.0 0.00 0.00 0.00 45 1030.9
20260503172404 62 248 3.0 8.0 0.00 0.00 0.00 44 1031.2
20260503171403 62 253 2.0 10.0 0.00 0.00 0.00 43 1031.2
20260503170403 61 315 11.0 13.0 0.00 0.00 0.00 44 1031.2
20260503150403 58 248 6.0 7.0 0.00 0.00 0.00 42 1032.0
20260503131403 47 248 0.0 0.0 0.00 0.00 0.00 57 1033.2
20260503110403 37 225 0.0 0.0 0.00 0.00 0.00 79 1015.3
20260503090403 37 202 0.0 0.0 0.00 0.00 0.00 79 1015.4
20260503081404 37 202 0.0 0.0 0.00 0.00 0.00 79 1015.6
20260503080903 37 202 0.0 0.0 0.00 0.00 0.00 79 1015.6
20260503080403 37 202 0.0 0.0 0.00 0.00 0.00 79 1015.6
20260503072904 37 202 0.0 0.0 0.00 0.00 0.00 78 1015.4
20260503072403 37 202 0.0 0.0 0.00 0.00 0.00 78 1015.6
20260503071904 37 202 0.0 1.0 0.00 0.00 0.00 78 1015.6
20260503071403 37 202 0.0 1.0 0.00 0.00 0.00 77 1015.6
20260503070904 37 202 0.0 0.0 0.00 0.00 0.00 77 1015.6
20260503070404 37 202 0.0 0.0 0.00 0.00 0.00 77 1015.6
20260503054903 37 202 0.0 0.0 0.00 0.02 0.00 75 1015.9
20260503053903 38 202 0.0 0.0 0.00 0.02 0.00 75 1015.9
20260503053403 38 202 0.0 0.0 0.00 0.02 0.00 75 1015.9
20260503052904 38 202 0.0 0.0 0.00 0.02 0.00 75 1015.9
20260503052403 38 202 0.0 0.0 0.00 0.02 0.00 75 1015.9
20260503051903 38 202 0.0 0.0 0.00 0.02 0.00 75 1016.3
20260503050904 38 202 0.0 0.0 0.00 0.02 0.00 75 1016.3
20260503045904 38 180 0.0 0.0 0.00 0.02 0.00 74 1016.3
20260503045403 38 202 0.0 0.0 0.00 0.02 0.00 74 1016.3
20260503044904 38 202 0.0 0.0 0.00 0.02 0.00 74 1016.3
20260503044403 38 202 0.0 0.0 0.00 0.02 0.00 74 1016.3
20260503043403 38 202 0.0 0.0 0.00 0.02 0.00 73 1016.3
20260503042904 38 180 0.0 0.0 0.00 0.02 0.00 73 1016.3
20260503042403 38 180 0.0 0.0 0.00 0.02 0.00 73 1016.3
20260503041904 39 180 0.0 0.0 0.00 0.02 0.00 73 1016.4
20260503041403 39 180 0.0 0.0 0.00 0.02 0.00 72 1016.6
20260503040403 39 180 0.0 0.0 0.00 0.02 0.00 70 1016.3
20260503035904 39 180 0.0 0.0 0.00 0.02 0.02 70 1016.4
20260503035404 40 180 0.0 0.0 0.00 0.02 0.02 70 1016.6
20260503034903 40 180 0.0 0.0 0.00 0.02 0.02 70 1016.3
20260503034403 40 180 0.0 0.0 0.00 0.02 0.02 69 1016.6
20260503033904 40 180 0.0 0.0 0.00 0.02 0.02 69 1016.6
20260503033404 41 180 0.0 0.0 0.00 0.02 0.02 68 1016.4
20260503032903 41 180 0.0 0.0 0.00 0.02 0.02 68 1016.6
20260503032404 41 180 0.0 0.0 0.00 0.02 0.02 68 1016.6
20260503031903 42 180 0.0 0.0 0.00 0.02 0.02 68 1016.3
20260503031404 42 180 0.0 0.0 0.00 0.02 0.02 68 1016.3
20260503030904 42 180 0.0 0.0 0.00 0.02 0.02 67 1016.3
20260503025904 43 180 0.0 0.0 0.00 0.02 0.02 67 1016.4
20260503024903 43 180 0.0 0.0 0.00 0.02 0.02 67 1016.6
20260503023904 43 180 0.0 0.0 0.00 0.02 0.02 66 1016.6
20260503023404 43 180 0.0 0.0 0.00 0.02 0.02 66 1016.6
20260503022903 43 180 0.0 0.0 0.00 0.02 0.02 66 1016.7
20260503022403 43 202 0.0 0.0 0.00 0.02 0.02 66 1016.9
20260503021904 43 202 0.0 0.0 0.00 0.02 0.02 66 1016.9
20260503021403 43 202 0.0 0.0 0.00 0.02 0.02 66 1016.6
20260503020904 43 180 0.0 0.0 0.00 0.02 0.02 66 1016.7
20260503020404 43 180 0.0 0.0 0.00 0.02 0.02 66 1016.9
20260503015903 43 180 0.0 0.0 0.00 0.02 0.02 66 1016.9
20260503015404 43 180 0.0 0.0 0.00 0.02 0.02 65 1016.9
20260503014904 43 180 0.0 0.0 0.00 0.02 0.02 65 1016.9
20260503014404 43 180 0.0 0.0 0.00 0.02 0.02 65 1016.9
20260503013903 43 180 0.0 0.0 0.00 0.02 0.02 65 1016.9
20260503013403 43 202 0.0 0.0 0.00 0.02 0.02 64 1016.7
20260503012903 43 202 0.0 0.0 0.00 0.02 0.02 64 1016.9
20260503012403 44 225 0.0 0.0 0.00 0.02 0.02 64 1016.9
20260503011903 44 225 0.0 0.0 0.00 0.02 0.02 63 1016.6
20260503010404 44 248 0.0 0.0 0.00 0.02 0.02 63 1016.9
20260503005904 44 248 0.0 0.0 0.00 0.02 0.02 63 1016.6
20260503005403 44 248 0.0 0.0 0.00 0.02 0.02 63 1016.9
20260503004904 44 248 0.0 0.0 0.00 0.02 0.02 63 1016.6
20260503004404 44 248 0.0 0.0 0.00 0.02 0.02 62 1016.6
20260503003903 44 292 0.0 0.0 0.00 0.02 0.02 62 1016.6
20260503003403 44 292 0.0 0.0 0.00 0.02 0.02 63 1016.6
20260503002903 44 270 0.0 0.0 0.00 0.02 0.02 63 1016.6
20260503002403 44 270 0.0 0.0 0.00 0.02 0.02 62 1016.6
20260503001904 44 270 0.0 0.0 0.00 0.02 0.02 62 1016.6
20260503001403 44 270 0.0 0.0 0.00 0.02 0.02 62 1016.6
20260503000903 44 248 0.0 0.0 0.00 0.02 0.02 63 1016.6
20260503000404 44 248 0.0 0.0 0.00 0.02 0.02 62 1016.6
20260502235403 45 248 0.0 0.0 0.00 0.02 0.02 61 1016.6
20260502234904 45 248 0.0 0.0 0.00 0.02 0.02 61 1016.6
20260502234404 45 292 0.0 0.0 0.00 0.02 0.02 60 1016.6
20260502233903 45 248 0.0 0.0 0.00 0.02 0.02 60 1016.6
20260502233403 45 258 0.0 0.0 0.00 0.02 0.02 60 1016.6
20260502232904 46 270 0.0 0.0 0.00 0.02 0.02 59 1016.6
20260502232403 46 248 0.0 0.0 0.00 0.02 0.02 59 1016.6
20260502231904 46 248 0.0 0.0 0.00 0.02 0.02 59 1016.6
20260502231403 46 292 0.0 0.0 0.00 0.02 0.02 58 1016.6
20260502230403 47 250 0.0 1.0 0.00 0.02 0.02 58 1016.6
20260502225904 47 248 0.0 0.0 0.00 0.02 0.02 58 1016.6
20260502225404 47 248 0.0 0.0 0.00 0.02 0.02 58 1016.6
20260502224904 47 272 0.0 0.0 0.00 0.02 0.02 58 1016.6
20260502223903 47 248 0.0 0.0 0.00 0.02 0.02 58 1016.6
20260502223403 47 265 0.0 0.0 0.00 0.02 0.02 57 1016.6
20260502222903 47 248 0.0 0.0 0.00 0.02 0.02 58 1016.6
20260502222403 47 269 0.0 0.0 0.00 0.02 0.02 57 1016.6
20260502221904 47 270 0.0 0.0 0.00 0.02 0.02 56 1016.9
20260502221403 48 292 0.0 0.0 0.00 0.02 0.02 57 1016.7
20260502220903 48 248 0.0 0.0 0.00 0.02 0.02 58 1016.9
20260502220403 48 248 0.0 0.0 0.00 0.02 0.02 57 1016.9
20260502215904 48 270 0.0 0.0 0.00 0.02 0.02 57 1016.9
20260502215403 48 314 0.0 0.0 0.00 0.02 0.02 57 1016.9
20260502214905 48 301 1.0 1.0 0.00 0.02 0.02 57 1016.9
20260502213904 48 315 0.0 1.0 0.00 0.02 0.02 57 1016.9
20260502213404 48 299 0.0 0.0 0.00 0.02 0.02 56 1016.8
20260502212903 48 292 0.0 0.0 0.00 0.02 0.02 56 1016.6
20260502212403 48 248 0.0 1.0 0.00 0.02 0.02 57 1016.7
20260502211903 48 314 0.0 1.0 0.00 0.02 0.02 57 1016.7
20260502211404 47 270 0.0 0.0 0.00 0.02 0.02 56 1016.7
20260502210903 47 271 3.0 3.0 0.00 0.02 0.02 56 1016.6
20260502210404 48 297 0.0 0.0 0.00 0.02 0.02 56 1016.9
20260502205903 48 315 0.0 0.0 0.00 0.02 0.02 55 1016.9
20260502205404 48 292 2.0 2.0 0.00 0.02 0.02 55 1016.9
20260502204903 48 304 0.0 0.0 0.00 0.02 0.02 55 1016.9
20260502204404 48 292 0.0 0.0 0.00 0.02 0.02 55 1016.8
20260502203903 48 314 0.0 0.0 0.00 0.02 0.02 55 1016.9